This is the latest recevied weather packets stored in our database for station/object HB9TVK-13. If no packets are shown the sender has not sent any weather packets the latest 10 day(s).
| Time | Temp. | Humidity | Pressure | Rain* | Wind** | Luminosity | Snow |
|---|---|---|---|---|---|---|---|
| 1777487237 | 15.56° C | 42% | 1019.8 hPa | 0 mm | - | - | - |
| 1777486637 | 16.11° C | 42% | 1019.7 hPa | 0 mm | - | - | - |
| 1777486038 | 16.11° C | 41% | 1019.7 hPa | 0 mm | - | - | - |
| 1777485435 | 16.67° C | 41% | 1019.6 hPa | 0 mm | - | - | - |
| 1777484836 | 16.67° C | 41% | 1019.5 hPa | 0 mm | - | - | - |
| 1777484236 | 17.22° C | 40% | 1019.4 hPa | 0 mm | - | - | - |
| 1777483636 | 17.22° C | 40% | 1019.3 hPa | 0 mm | - | - | - |
| 1777483037 | 17.22° C | 41% | 1019.3 hPa | 0 mm | - | - | - |
| 1777482437 | 17.22° C | 41% | 1019.3 hPa | 0 mm | - | - | - |
| 1777481838 | 17.22° C | 40% | 1019.3 hPa | 0 mm | - | - | - |
| 1777481236 | 17.78° C | 40% | 1019.2 hPa | 0 mm | - | - | - |
| 1777480636 | 18.33° C | 41% | 1019.2 hPa | 0 mm | - | - | - |
| 1777480036 | 18.33° C | 42% | 1019.2 hPa | 0 mm | - | - | - |
| 1777479437 | 18.33° C | 42% | 1019.1 hPa | 0 mm | - | - | - |
| 1777478837 | 18.33° C | 44% | 1019 hPa | 0 mm | - | - | - |
| 1777478237 | 18.89° C | 44% | 1019.2 hPa | 0 mm | - | - | - |
| 1777477638 | 18.89° C | 44% | 1019 hPa | 0 mm | - | - | - |
| 1777477036 | 18.89° C | 45% | 1019 hPa | 0 mm | - | - | - |
| 1777476436 | 18.89° C | 45% | 1019.1 hPa | 0 mm | - | - | - |
| 1777475836 | 18.89° C | 46% | 1019 hPa | 0 mm | - | - | - |
| 1777475236 | 18.89° C | 45% | 1019.1 hPa | 0 mm | - | - | - |
| 1777474637 | 19.44° C | 46% | 1019.1 hPa | 0 mm | - | - | - |
| 1777474037 | 19.44° C | 46% | 1019 hPa | 0 mm | - | - | - |
| 1777473438 | 18.89° C | 46% | 1019.1 hPa | 0 mm | - | - | - |
| 1777472835 | 18.89° C | 47% | 1019 hPa | 0 mm | - | - | - |
* Rain latest hour (hover to see other rain measurements)
** Current wind speed in m/s (hover to see current wind gust speed)